Lid_Strength_Index
13 13 13 13 13 13 13 13 13 12 12 12 11 10 10 9 8 7 7 6 6 6 6 6 6 4 3 3 1 2 2 2 5 3 2 1 1 3 3 3 3 3 3
14 14 14 14 14 14 14 14 13 14 13 13 13 12 12 11 10 9 8 8 8 8 8 7 7 6 6 5 3 3 2 2 3 4 3 2 2 1 2 2 3 4 4
15 15 15 15 15 15 15 15 14 14 14 14 13 13 13 12 11 10 10 10 9 8 8 8 8 8 8 7 7 6 6 5 3 3 3 2 2 2 2 5 5 5 7
15 16 16 16 16 16 15 15 15 15 15 14 14 14 13 13 11 12 11 11 11 10 10 9 8 8 8 8 8 8 8 8 7 7 6 4 3 9 10 9 9 11 9
16 16 17 16 16 16 16 16 15 15 15 14 14 14 13 12 12 12 11 11 11 10 10 9 8 8 9 8 8 8 8 9 9 9 9 7 5 9 10 9 9 9 11
17 17 17 17 17 18 17 16 16 15 15 14 13 13 12 12 11 11 11 11 10 10 10 9 8 9 8 7 7 7 7 8 8 9 9 10 8 6 9 8 8 11 9
17 17 18 17 18 17 17 16 16 15 14 14 13 12 13 12 11 11 11 11 11 10 10 10 10 9 9 8 7 7 6 6 6 6 9 9 9 7 9 8 10 10 8
18 19 18 18 18 17 17 16 16 15 14 14 13 13 14 13 12 12 12 12 12 12 11 11 10 10 9 9 9 9 9 8 7 7 7 7 6 6 5 6 7 10 12
20 20 19 19 19 18 17 17 16 15 14 14 14 14 14 14 13 12 12 13 13 13 12 12 11 11 10 9 10 10 10 9 7 7 6 6 6 6 6 7 9 11 11
21 21 19 19 18 18 17 17 16 15 15 14 15 15 15 15 14 13 13 13 14 15 14 13 12 13 12 11 12 11 11 10 9 9 9 8 7 7 7 7 7 9 9
21 21 20 19 18 18 17 17 16 16 16 16 16 16 16 15 15 13 13 14 15 15 15 15 14 14 13 12 12 13 14 12 10 9 9 9 8 9 9 8 8 8 8
22 21 21 20 19 18 18 17 17 17 16 17 16 16 16 15 15 14 13 13 13 15 16 14 14 12 13 13 13 12 12 13 13 11 9 10 9 9 9 9 9 10 9
23 22 21 20 19 19 19 18 17 17 16 17 16 17 17 15 14 13 13 13 13 14 14 14 13 13 13 14 14 13 15 15 15 14 11 10 9 10 10 11 11 11 11
23 22 20 20 20 19 18 18 17 18 17 17 17 17 17 16 14 13 13 13 14 14 15 15 14 15 15 16 18 17 17 18 17 17 15 13 8 9 10 10 11 12 13
22 21 21 20 20 20 19 19 18 17 16 17 16 16 17 16 14 13 14 14 14 14 17 17 18 19 19 20 20 19 19 19 19 18 17 16 14 12 10 10 11 11 13
22 21 22 21 21 20 21 20 19 18 16 16 15 15 16 15 14 14 14 15 14 15 18 20 21 21 21 21 22 21 20 21 21 20 19 19 18 16 16 14 12 11 12
23 23 22 22 22 22 22 22 22 19 18 18 17 15 15 15 15 15 15 16 16 18 21 21 22 22 22 22 22 22 22 22 21 21 21 21 20 19 18 18 17 15 13
25 26 23 23 23 22 22 22 22 23 23 21 19 17 16 16 16 16 16 18 20 20 21 22 22 22 23 23 23 23 23 22 22 22 22 22 22 21 21 20 19 18 17
23 23 23 23 23 24 23 22 22 23 23 23 21 20 19 17 17 17 17 21 22 22 22 22 22 23 23 23 23 23 23 23 23 23 23 23 22 22 22 22 21 20 20
25 25 26 23 23 23 23 23 23 23 23 23 22 22 19 21 21 21 21 22 22 23 23 23 23 23 23 24 24 24 24 23 23 23 23 23 23 22 23 23 22 22 22
24 24 29 24 24 24 24 24 24 23 23 23 23 22 16 22 22 22 22 22 23 23 23 23 23 23 23 24 24 25 25 24 24 24 23 23 22 23 23 22 23 22 22
25 25 25 25 25 24 25 24 24 24 24 23 22 22 19 22 22 23 22 23 23 23 23 23 24 23 24 25 25 25 25 25 25 24 24 23 22 23 23 23 23 23 23
25 25 25 25 25 27 25 25 24 24 23 23 23 22 22 22 23 23 23 23 23 23 23 24 24 25 24 24 25 25 26 26 25 24 24 23 22 23 23 23 23 24 24
26 25 25 25 25 25 25 24 24 25 24 23 23 22 22 23 23 24 24 24 24 24 24 24 25 25 25 26 25 25 25 25 24 23 22 22 22 23 23 23 24 24 24
26 26 25 25 25 25 25 24 24 23 23 23 23 23 23 24 24 24 24 24 25 26 25 25 25 25 26 27 27 27 26 25 24 22 20 20 21 22 23 23 24 24 24
25 26 26 25 26 25 24 24 24 24 24 24 24 24 25 25 25 25 25 26 26 26 27 26 26 26 27 26 26 25 24 21 21 18 18 19 20 21 22 23 23 23 24